N216TB KMSY-KPNS

Flight info

Callsign N216TB
Flight time 0h 37m
Altitude 17000
Route DCT GPT DCT SJI DCT LOXLY DCT PENSI DCT HOMTU DCT HAROT DCT FIDUL DCT
Aircraft C750/M-L/C

Departure

Time 2026-05-07 18:48
Airport Louis Armstrong New Orleans International Airport (KMSY)

Arrival

Time 2026-05-07 19:25
Airport Pensacola International Airport (KPNS)
Time Latitude Longitude Altitude Speed Heading
2026-05-07 18:31 29.99178 -90.27195 7 ft 0 kts 16°
2026-05-07 18:41 29.99202 -90.27176 7 ft 4 kts 51°
2026-05-07 18:41 29.99214 -90.27158 7 ft 2 kts 51°
2026-05-07 18:42 29.99221 -90.27149 8 ft 1 kts 51°
2026-05-07 18:42 29.99222 -90.27147 8 ft 2 kts 51°
2026-05-07 18:42 29.99241 -90.27136 8 ft 2 kts 21°
2026-05-07 18:42 29.99260 -90.27126 8 ft 4 kts 36°
2026-05-07 18:43 29.99273 -90.27080 9 ft 9 kts 95°
2026-05-07 18:43 29.99254 -90.26996 10 ft 13 kts 106°
2026-05-07 18:43 29.99227 -90.26881 10 ft 17 kts 105°
2026-05-07 18:43 29.99192 -90.26734 8 ft 22 kts 105°
2026-05-07 18:44 29.99152 -90.26554 8 ft 24 kts 104°
2026-05-07 18:44 29.99101 -90.26358 8 ft 27 kts 105°
2026-05-07 18:44 29.99050 -90.26146 8 ft 27 kts 106°
2026-05-07 18:44 29.99002 -90.25948 8 ft 25 kts 105°
2026-05-07 18:45 29.98957 -90.25762 11 ft 23 kts 106°
2026-05-07 18:45 29.98918 -90.25596 10 ft 22 kts 104°
2026-05-07 18:45 29.98878 -90.25429 7 ft 21 kts 105°
2026-05-07 18:45 29.98836 -90.25266 5 ft 21 kts 106°
2026-05-07 18:46 29.98815 -90.25174 3 ft 7 kts 103°
2026-05-07 18:46 29.98806 -90.25127 3 ft 0 kts 103°
2026-05-07 18:46 29.98806 -90.25125 3 ft 2 kts 104°
2026-05-07 18:47 29.98798 -90.25069 3 ft 8 kts 83°
2026-05-07 18:47 29.98810 -90.25040 3 ft 4 kts 54°
2026-05-07 18:47 29.98954 -90.24983 2 ft 66 kts 13°
2026-05-07 18:47 29.99735 -90.24730 42 ft 149 kts 17°
2026-05-07 18:48 30.00672 -90.24383 764 ft 135 kts 15°
2026-05-07 18:48 30.01567 -90.24076 1430 ft 132 kts 17°
2026-05-07 18:48 30.02448 -90.23775 2090 ft 132 kts 15°
2026-05-07 18:48 30.03326 -90.23475 2741 ft 132 kts 13°
2026-05-07 18:49 30.04194 -90.23178 3374 ft 129 kts 12°
2026-05-07 18:49 30.05047 -90.22886 4014 ft 127 kts 11°
2026-05-07 18:49 30.05882 -90.22600 4632 ft 128 kts
2026-05-07 18:49 30.06767 -90.22188 4779 ft 161 kts 24°
2026-05-07 18:50 30.07798 -90.21301 4115 ft 208 kts 39°
2026-05-07 18:50 30.08494 -90.19801 4194 ft 219 kts 84°
2026-05-07 18:50 30.08055 -90.18123 4862 ft 230 kts 124°
2026-05-07 18:50 30.07019 -90.16598 5368 ft 255 kts 132°
2026-05-07 18:51 30.05825 -90.14931 5767 ft 284 kts 132°
2026-05-07 18:51 30.04541 -90.13124 5885 ft 293 kts 131°
2026-05-07 18:51 30.03720 -90.11041 6316 ft 285 kts 98°
2026-05-07 18:51 30.04069 -90.08870 7173 ft 287 kts 64°
2026-05-07 18:52 30.05233 -90.06963 7829 ft 295 kts 47°
2026-05-07 18:52 30.06535 -90.05088 8568 ft 303 kts 50°
2026-05-07 18:52 30.07635 -90.02971 9281 ft 311 kts 62°
2026-05-07 18:52 30.08420 -90.00628 9996 ft 316 kts 69°
2026-05-07 18:53 30.09129 -89.98190 10653 ft 326 kts 69°
2026-05-07 18:53 30.09963 -89.95716 11325 ft 337 kts 65°
2026-05-07 18:53 30.10918 -89.93190 12010 ft 347 kts 65°
2026-05-07 18:53 30.11860 -89.90590 12708 ft 356 kts 66°
2026-05-07 18:54 30.12768 -89.87928 13408 ft 365 kts 67°
2026-05-07 18:54 30.13716 -89.85185 14100 ft 372 kts 66°
2026-05-07 18:54 30.14711 -89.82394 14740 ft 379 kts 66°
2026-05-07 18:54 30.15720 -89.79550 15378 ft 386 kts 66°
2026-05-07 18:55 30.16732 -89.76648 16046 ft 393 kts 67°
2026-05-07 18:55 30.17763 -89.73693 16718 ft 400 kts 67°
2026-05-07 18:55 30.18829 -89.70657 16984 ft 421 kts 67°
2026-05-07 18:55 30.19967 -89.67420 16981 ft 446 kts 67°
2026-05-07 18:56 30.21156 -89.64014 16988 ft 468 kts 67°
2026-05-07 18:56 30.21697 -89.62464 16988 ft 477 kts 67°
2026-05-07 18:56 30.21816 -89.62121 16999 ft 479 kts 67°
2026-05-07 18:56 30.22562 -89.59983 16987 ft 489 kts 67°
2026-05-07 18:57 30.23082 -89.58492 16989 ft 493 kts 67°
2026-05-07 18:57 30.24368 -89.54805 16995 ft 495 kts 67°
2026-05-07 18:57 30.25657 -89.51107 16996 ft 497 kts 67°
2026-05-07 18:57 30.26949 -89.47394 16998 ft 498 kts 67°
2026-05-07 18:58 30.28224 -89.43728 16999 ft 498 kts 67°
2026-05-07 18:58 30.29513 -89.40014 16999 ft 498 kts 67°
2026-05-07 18:58 30.30804 -89.36295 17001 ft 498 kts 68°
2026-05-07 18:58 30.32096 -89.32568 16998 ft 499 kts 68°
2026-05-07 18:59 30.33386 -89.28840 16995 ft 499 kts 68°
2026-05-07 18:59 30.34675 -89.25112 16984 ft 499 kts 68°
2026-05-07 18:59 30.35964 -89.21378 16979 ft 499 kts 68°
2026-05-07 18:59 30.37251 -89.17649 16970 ft 499 kts 68°
2026-05-07 19:00 30.38521 -89.13966 16975 ft 500 kts 68°
2026-05-07 19:00 30.39810 -89.10222 16971 ft 500 kts 68°
2026-05-07 19:00 30.41178 -89.06533 16938 ft 499 kts 62°
2026-05-07 19:00 30.42803 -89.02986 16963 ft 499 kts 60°
2026-05-07 19:01 30.44410 -88.99430 16963 ft 499 kts 61°
2026-05-07 19:01 30.45989 -88.95840 16957 ft 499 kts 62°
2026-05-07 19:01 30.47576 -88.92259 16962 ft 500 kts 61°
2026-05-07 19:01 30.49169 -88.88735 16962 ft 499 kts 61°
2026-05-07 19:02 30.50774 -88.85170 16964 ft 499 kts 61°
2026-05-07 19:02 30.52365 -88.81583 16969 ft 500 kts 61°
2026-05-07 19:02 30.53950 -88.78002 16963 ft 500 kts 61°
2026-05-07 19:02 30.55552 -88.74416 16967 ft 500 kts 61°
2026-05-07 19:03 30.57157 -88.70828 16976 ft 501 kts 61°
2026-05-07 19:03 30.58753 -88.67232 16976 ft 501 kts 61°
2026-05-07 19:03 30.60342 -88.63641 16972 ft 501 kts 61°
2026-05-07 19:03 30.61940 -88.60038 16972 ft 501 kts 61°
2026-05-07 19:04 30.63517 -88.56491 16974 ft 502 kts 61°
2026-05-07 19:04 30.65110 -88.52894 16973 ft 502 kts 61°
2026-05-07 19:04 30.66706 -88.49281 16977 ft 502 kts 61°
2026-05-07 19:04 30.68298 -88.45678 16982 ft 502 kts 61°
2026-05-07 19:05 30.69890 -88.42076 16985 ft 502 kts 61°
2026-05-07 19:05 30.71405 -88.38433 16917 ft 497 kts 65°
2026-05-07 19:05 30.72420 -88.34675 16372 ft 478 kts 76°
2026-05-07 19:05 30.72937 -88.30955 15857 ft 455 kts 85°
2026-05-07 19:06 30.73153 -88.27377 15358 ft 434 kts 86°
2026-05-07 19:06 30.73606 -88.20616 14408 ft 414 kts 85°
2026-05-07 19:06 30.73826 -88.17297 13941 ft 411 kts 85°
2026-05-07 19:07 30.74031 -88.13983 13448 ft 412 kts 85°
2026-05-07 19:07 30.74241 -88.10671 12955 ft 409 kts 85°
2026-05-07 19:07 30.74455 -88.07397 12463 ft 405 kts 85°
2026-05-07 19:07 30.74665 -88.04137 11973 ft 402 kts 85°
2026-05-07 19:08 30.74866 -88.00948 11496 ft 398 kts 85°
2026-05-07 19:08 30.75073 -87.97680 11036 ft 423 kts 85°
2026-05-07 19:08 30.75295 -87.94174 10998 ft 444 kts 85°
2026-05-07 19:08 30.75521 -87.90575 10987 ft 447 kts 85°
2026-05-07 19:09 30.75745 -87.86959 10979 ft 448 kts 85°
2026-05-07 19:09 30.75962 -87.83463 10902 ft 421 kts 85°
2026-05-07 19:09 30.76166 -87.80173 10394 ft 395 kts 85°
2026-05-07 19:09 30.76358 -87.77077 9983 ft 372 kts 85°
2026-05-07 19:10 30.76537 -87.74166 9652 ft 350 kts 85°
2026-05-07 19:10 30.76705 -87.71424 9319 ft 332 kts 85°
2026-05-07 19:10 30.76863 -87.68839 8936 ft 321 kts 85°
2026-05-07 19:10 30.77020 -87.66267 8466 ft 317 kts 85°
2026-05-07 19:11 30.77174 -87.63734 8013 ft 313 kts 85°
2026-05-07 19:11 30.77325 -87.61220 7574 ft 311 kts 85°
2026-05-07 19:11 30.77477 -87.58710 7153 ft 309 kts 85°
2026-05-07 19:11 30.77624 -87.56256 6740 ft 307 kts 85°
2026-05-07 19:12 30.77772 -87.53796 6323 ft 304 kts 85°
2026-05-07 19:12 30.77918 -87.51348 5880 ft 302 kts 85°
2026-05-07 19:12 30.78063 -87.48918 5438 ft 299 kts 86°
2026-05-07 19:12 30.78205 -87.46515 5027 ft 296 kts 85°
2026-05-07 19:13 30.78343 -87.44185 4947 ft 280 kts 86°
2026-05-07 19:13 30.78474 -87.41954 4937 ft 275 kts 85°
2026-05-07 19:13 30.78607 -87.39697 4945 ft 287 kts 85°
2026-05-07 19:13 30.78746 -87.37349 4958 ft 292 kts 86°
2026-05-07 19:14 30.78817 -87.36140 4949 ft 293 kts 86°
2026-05-07 19:14 30.78887 -87.34922 4962 ft 294 kts 86°
2026-05-07 19:14 30.79025 -87.32548 4961 ft 293 kts 86°
2026-05-07 19:14 30.79161 -87.30179 4959 ft 294 kts 86°
2026-05-07 19:15 30.78977 -87.27825 4878 ft 294 kts 109°
2026-05-07 19:15 30.77923 -87.25846 4895 ft 286 kts 135°
2026-05-07 19:15 30.76477 -87.24257 4976 ft 289 kts 141°
2026-05-07 19:15 30.74983 -87.22693 4910 ft 291 kts 141°
2026-05-07 19:16 30.73475 -87.21073 4580 ft 298 kts 140°
2026-05-07 19:16 30.71980 -87.19436 4230 ft 297 kts 140°
2026-05-07 19:16 30.70487 -87.17815 3856 ft 289 kts 140°
2026-05-07 19:16 30.69046 -87.16264 3486 ft 276 kts 140°
2026-05-07 19:17 30.67662 -87.14774 3110 ft 266 kts 140°
2026-05-07 19:17 30.66325 -87.13333 2727 ft 259 kts 140°
2026-05-07 19:17 30.65020 -87.11927 2343 ft 253 kts 141°
2026-05-07 19:17 30.63750 -87.10558 2147 ft 240 kts 140°
2026-05-07 19:18 30.62581 -87.09294 2143 ft 220 kts 141°
2026-05-07 19:18 30.61499 -87.08130 2147 ft 205 kts 141°
2026-05-07 19:18 30.60495 -87.07051 2143 ft 194 kts 141°
2026-05-07 19:18 30.59537 -87.06021 2149 ft 184 kts 142°
2026-05-07 19:19 30.58608 -87.05022 2163 ft 180 kts 142°
2026-05-07 19:19 30.57671 -87.04019 1975 ft 187 kts 141°
2026-05-07 19:19 30.56705 -87.02982 1793 ft 191 kts 141°
2026-05-07 19:19 30.55713 -87.01915 1690 ft 196 kts 140°
2026-05-07 19:20 30.54713 -87.00838 1700 ft 197 kts 140°
2026-05-07 19:20 30.53625 -86.99966 1599 ft 180 kts 167°
2026-05-07 19:20 30.52503 -86.99837 1574 ft 154 kts 194°
2026-05-07 19:20 30.51554 -87.00197 1616 ft 135 kts 216°
2026-05-07 19:21 30.50880 -87.00840 1664 ft 121 kts 234°
2026-05-07 19:21 30.50453 -87.01721 1677 ft 137 kts 255°
2026-05-07 19:21 30.50209 -87.02880 1706 ft 149 kts 257°
2026-05-07 19:21 30.49974 -87.04016 1684 ft 140 kts 258°
2026-05-07 19:22 30.49771 -87.05118 1677 ft 139 kts 259°
2026-05-07 19:22 30.49573 -87.06207 1672 ft 136 kts 258°
2026-05-07 19:22 30.49383 -87.07253 1677 ft 131 kts 258°
2026-05-07 19:22 30.49196 -87.08286 1644 ft 130 kts 259°
2026-05-07 19:23 30.49013 -87.09302 1632 ft 133 kts 257°
2026-05-07 19:23 30.48834 -87.10396 1444 ft 144 kts 258°
2026-05-07 19:23 30.48638 -87.11556 1278 ft 146 kts 257°
2026-05-07 19:23 30.48280 -87.12646 1157 ft 142 kts 255°
2026-05-07 19:24 30.48119 -87.13767 919 ft 140 kts 263°
2026-05-07 19:24 30.48007 -87.14907 691 ft 145 kts 264°
2026-05-07 19:24 30.47801 -87.16054 376 ft 146 kts 251°
2026-05-07 19:24 30.47572 -87.17075 277 ft 124 kts 261°
2026-05-07 19:25 30.47437 -87.17992 132 ft 102 kts 255°
2026-05-07 19:25 30.47316 -87.18584 113 ft 21 kts 258°
2026-05-07 19:25 30.47297 -87.18684 111 ft 11 kts 256°
2026-05-07 19:25 30.47279 -87.18760 109 ft 8 kts 249°